SCP
0 0 0 0 0 0 0 0 0 0 0 0 0 0 0 0 0 0 0 0 0 1 1 1 0 0 1 1 1 1 1 1 1 1 1 1 1 1 1 1 1 1 1
0 0 0 0 0 0 0 0 0 0 0 0 0 0 0 0 0 0 0 0 0 0 0 0 0 1 1 1 1 1 1 1 1 1 1 1 1 1 1 1 1 1 1
0 0 0 0 0 0 0 0 0 0 0 0 0 0 0 0 0 0 0 0 0 0 0 0 0 1 1 1 1 1 1 1 1 1 1 1 1 1 1 1 1 1 1
0 0 0 0 0 0 0 0 0 0 0 0 0 0 0 0 0 0 0 0 0 0 0 0 0 0 0 0 0 0 1 1 1 1 1 1 1 1 1 1 1 1 1
0 0 0 0 0 0 0 0 0 0 0 0 0 0 0 0 0 0 0 0 0 0 0 0 0 0 0 0 0 0 0 0 0 1 1 1 1 1 1 1 1 1 1
0 0 0 0 0 0 0 0 0 0 0 0 0 0 0 0 0 0 0 0 0 0 0 0 0 0 0 0 0 0 0 0 0 0 0 1 1 0 0 0 0 0 0
0 0 0 0 0 0 0 0 0 0 0 0 0 0 0 0 0 0 0 0 0 0 0 0 0 0 0 0 0 0 0 0 0 0 0 0 1 0 0 0 0 0 0
0 0 0 0 0 0 0 0 0 0 0 0 0 0 0 0 0 0 0 0 0 0 0 0 0 0 0 0 0 0 0 0 0 0 0 0 1 0 0 0 0 0 0
0 0 0 0 0 0 0 0 0 0 0 0 0 0 0 0 0 0 0 0 0 0 0 0 0 0 0 0 0 0 0 0 0 0 0 0 0 0 0 0 0 0 0
0 0 0 0 0 0 0 0 0 0 0 0 0 0 0 0 0 0 0 0 0 0 0 0 0 0 0 0 0 0 0 0 0 0 0 0 0 0 0 0 0 0 0
0 0 0 0 0 0 0 0 0 0 0 0 0 0 0 0 0 0 0 0 0 0 0 0 0 0 0 0 0 0 0 0 0 0 0 0 0 0 0 0 0 0 0
0 0 0 0 0 0 0 0 0 0 0 0 0 0 0 0 0 0 0 0 0 0 0 0 0 0 0 0 0 0 0 0 0 0 0 0 0 0 0 0 0 0 0
0 0 0 0 0 0 0 0 0 0 0 0 0 0 0 0 0 0 0 0 0 0 0 0 0 0 0 0 0 0 0 0 0 0 0 0 0 0 0 0 0 0 0
0 0 0 0 0 0 0 0 0 0 0 0 0 0 0 0 0 0 0 0 0 0 0 0 0 0 0 0 0 0 0 0 0 0 0 0 0 0 0 0 0 0 0
0 0 0 0 0 0 0 0 0 0 0 0 0 0 0 0 0 0 0 0 0 0 0 0 0 0 0 0 0 0 0 0 0 0 0 0 0 0 0 0 0 0 0
0 0 0 0 0 0 0 0 0 0 0 0 0 0 0 0 0 0 0 0 0 0 0 0 0 0 0 0 0 0 0 0 0 0 0 0 0 0 0 0 0 0 0
0 0 0 0 0 0 0 0 0 0 0 0 0 0 0 0 0 0 0 0 0 0 0 0 0 0 0 0 0 0 0 0 0 0 0 0 0 0 0 0 0 0 0
0 0 0 0 0 0 0 0 0 0 0 0 0 0 0 0 0 0 0 0 0 0 0 0 0 0 0 0 0 0 0 0 0 0 0 0 0 0 0 0 0 0 0
0 0 0 0 0 0 0 0 0 0 0 0 0 0 0 0 0 0 0 0 0 0 0 0 0 0 0 0 0 0 0 0 0 0 0 0 0 0 0 0 0 0 0
0 0 0 0 0 0 0 0 0 0 0 0 0 0 0 0 0 0 0 0 0 0 0 0 0 0 0 0 0 0 0 0 0 0 0 0 0 0 0 0 0 0 0
0 0 0 0 0 0 0 0 0 0 0 0 0 0 0 0 0 0 0 0 0 0 0 0 0 0 0 0 0 0 0 0 0 0 0 0 0 0 0 0 0 0 0
0 0 0 0 0 0 0 0 0 0 0 0 0 0 0 0 0 0 0 0 0 0 0 0 0 0 0 0 0 0 0 0 0 0 0 0 0 0 0 0 0 0 0
0 0 0 0 0 0 0 0 0 0 0 0 0 0 0 0 0 0 0 0 0 0 0 0 0 0 0 0 0 0 0 0 0 0 0 0 0 0 0 0 0 0 0
0 0 0 0 0 0 0 0 0 0 0 0 0 0 0 0 0 0 0 0 0 0 0 0 0 0 0 0 0 0 0 0 0 0 0 0 0 0 0 0 0 0 0
0 0 0 0 0 0 0 0 0 0 0 0 0 0 0 0 0 0 0 -0 -0 0 0 0 0 0 0 0 0 0 0 0 0 0 0 0 0 0 0 0 0 0 0
0 0 0 0 0 0 0 0 0 0 0 0 0 0 0 0 0 0 0 0 0 0 0 0 0 0 0 0 0 0 0 0 0 0 0 0 0 0 0 0 0 0 0
Wind_Speed
2 2 2 1 2 2 2 2 2 3 3 3 3 3 4 4 3 3 3 8 8 10 12 13 13 14 14 14 14 14 14 15 14 14 14 15 15 15 16 16 15 15 15
2 1 1 1 2 2 2 2 3 3 3 2 3 3 3 3 4 3 3 4 7 8 9 11 11 11 11 13 13 13 14 14 14 14 14 14 15 15 16 16 16 16 15
1 1 2 1 2 2 2 1 2 1 2 2 3 3 3 3 3 3 3 3 3 6 8 9 10 9 9 12 13 13 13 14 14 14 14 15 15 15 16 16 16 16 16
2 2 1 1 2 1 1 1 1 1 2 2 2 3 2 2 3 3 2 2 2 3 5 8 9 9 11 11 12 13 13 14 14 14 14 15 15 15 16 16 16 16 16
2 1 1 1 1 0 1 2 1 1 1 2 2 2 2 2 3 3 3 3 3 3 3 6 8 9 10 11 11 11 13 14 14 14 14 15 15 15 15 16 16 16 16
1 1 1 1 1 0 1 1 1 1 1 2 2 2 2 2 2 2 3 2 2 3 3 4 3 5 9 10 11 12 13 14 14 13 14 14 14 14 14 15 15 15 16
1 1 1 1 1 1 1 1 0 1 1 1 1 2 3 2 2 2 2 2 2 3 2 3 3 3 3 8 9 11 12 13 14 13 13 12 12 12 12 13 14 15 15
1 1 1 1 1 1 1 0 0 0 1 0 1 1 2 4 3 3 2 2 2 2 3 4 3 3 3 3 5 9 10 11 11 13 13 11 11 11 12 12 13 13 15
1 1 1 1 1 1 1 1 1 1 1 1 1 2 1 2 3 3 3 2 2 2 3 3 4 4 5 3 4 7 9 9 11 12 12 11 11 11 11 12 13 12 13
1 1 1 1 1 1 2 2 1 1 1 1 1 1 2 3 2 2 3 2 3 3 3 3 4 4 4 3 5 7 9 9 11 12 12 13 13 12 12 12 13 14 14
1 1 2 1 1 1 2 2 2 2 2 2 2 1 1 1 2 2 3 3 3 3 3 3 3 3 4 4 4 6 9 9 10 11 11 13 13 13 13 13 13 14 15
1 2 2 2 2 2 2 2 2 2 2 2 2 2 2 2 2 2 3 3 3 3 3 3 3 3 4 4 6 8 9 9 10 11 11 12 12 13 13 13 13 14 14
2 3 2 2 2 2 2 2 2 2 2 3 3 3 3 3 2 2 2 2 3 3 2 2 3 3 4 3 5 8 8 9 10 10 10 10 11 12 13 13 14 14 14
3 3 2 2 2 2 2 1 1 2 2 2 3 3 2 3 2 2 2 2 2 3 2 3 2 2 3 3 5 8 6 10 10 11 11 11 11 12 13 13 14 13 13
3 3 2 2 2 2 1 1 1 2 2 2 3 3 2 3 2 2 2 3 3 2 3 4 3 3 2 2 5 4 5 8 11 11 12 12 12 12 12 13 13 13 13
2 2 2 2 2 2 1 1 1 2 2 2 2 2 2 2 1 1 2 2 3 3 3 3 3 3 3 3 4 3 4 7 9 10 11 11 11 11 11 11 12 13 13
2 2 2 2 2 2 1 1 2 2 2 3 2 2 2 1 1 1 1 1 1 2 3 3 3 3 3 3 3 3 3 3 4 8 8 8 9 9 10 10 11 12 12
2 1 1 1 1 1 1 1 2 2 2 2 2 0 1 1 0 1 1 1 1 2 2 3 3 2 3 3 3 3 3 3 3 5 6 7 7 7 8 9 9 10 11
2 2 1 1 1 1 1 1 1 1 1 1 1 0 1 0 1 1 1 1 1 1 1 2 3 2 2 2 2 3 3 2 3 3 4 5 6 6 7 8 8 9 10
1 1 1 1 1 1 1 1 1 1 1 1 0 0 1 1 1 2 1 2 1 1 1 1 2 2 2 2 1 2 2 2 2 2 2 2 3 4 5 6 7 8 9
1 1 1 1 1 1 1 2 1 1 1 1 1 1 1 1 1 1 1 1 1 1 1 1 2 2 2 2 2 2 2 2 3 1 1 1 1 2 3 5 6 7 8
2 2 2 2 2 2 3 3 2 1 1 1 1 2 2 2 3 3 3 3 2 2 2 2 2 2 3 3 2 2 1 1 3 2 0 2 1 2 2 2 4 6 7
1 2 2 1 1 2 3 3 3 2 1 1 1 2 2 2 3 2 4 5 4 4 4 3 3 4 4 3 2 2 2 2 3 3 1 2 2 2 3 3 5 5 5
1 1 1 1 1 2 3 3 3 2 2 2 1 1 1 2 3 2 2 3 4 4 4 2 3 4 4 3 3 3 3 2 3 3 1 2 2 3 3 3 5 6 6
1 1 0 0 1 2 3 2 2 2 2 2 2 2 2 2 4 3 2 3 4 5 5 4 3 3 4 3 2 1 0 0 2 3 1 2 2 2 2 3 4 6 7
1 1 1 1 0 1 2 2 2 1 2 2 3 3 4 4 4 3 1 1 3 4 4 4 4 5 4 3 2 2 2 1 2 3 2 1 1 0 2 2 2 2 3
Wind_Direction
212 221 225 235 244 241 237 248 255 255 249 249 249 244 241 240 240 232 243 242 234 231 228 224 221 221 217 216 216 213 213 215 213 211 209 207 207 208 208 210 209 207 206
205 213 229 234 244 246 237 226 233 240 244 247 254 250 244 243 240 230 230 239 232 231 234 234 230 225 223 223 222 216 212 214 215 214 213 213 211 212 211 211 211 209 207
195 198 218 233 244 244 244 235 252 243 257 262 262 260 251 247 244 234 231 228 234 234 234 237 229 225 228 226 225 221 216 215 216 217 218 217 215 215 215 214 211 211 211
185 181 216 244 243 231 241 241 255 266 265 263 263 262 256 250 249 237 233 227 224 236 238 235 229 225 230 231 230 227 223 221 221 222 221 221 219 217 218 216 214 214 213
198 174 210 241 237 222 259 266 254 234 259 275 261 256 254 246 249 244 236 229 225 227 228 233 234 232 232 231 235 236 232 228 227 225 225 224 221 219 219 218 215 215 215
210 179 212 243 243 218 267 270 269 291 255 262 275 282 268 261 260 238 242 240 232 231 232 233 235 241 240 240 237 236 239 235 232 227 225 225 223 220 218 218 217 217 217
204 200 253 275 222 220 238 262 255 295 306 332 11 324 313 294 276 254 251 249 250 240 235 231 224 225 243 241 239 238 240 241 235 231 226 223 219 216 215 216 218 217 217
219 208 211 226 230 231 264 262 151 2 320 42 124 28 331 327 310 282 267 249 248 245 241 238 225 223 230 229 237 238 240 240 239 233 228 222 218 219 218 217 219 219 219
227 215 211 209 219 189 228 244 191 160 255 282 164 154 167 249 293 302 275 261 258 246 249 246 232 231 230 224 231 236 239 238 237 236 231 223 217 220 223 222 222 222 222
250 231 215 204 206 203 223 240 212 203 196 253 274 213 200 190 210 291 307 289 273 260 254 254 245 238 234 229 230 233 236 236 237 236 235 231 224 223 225 227 228 226 224
279 245 218 217 226 227 234 244 245 224 203 212 221 233 248 242 209 206 276 296 295 268 253 250 248 242 237 233 232 235 235 233 235 235 235 235 228 227 228 229 230 230 228
301 280 237 227 229 229 235 234 235 225 221 223 224 209 203 211 224 212 238 268 277 278 267 256 247 242 236 228 235 238 235 232 230 231 230 232 230 228 227 231 232 231 230
284 272 259 246 244 237 235 233 233 242 234 232 233 232 225 224 210 209 225 255 272 285 286 276 256 248 246 230 237 240 236 232 227 225 223 225 229 227 227 230 235 235 232
256 258 256 251 248 243 243 246 254 253 249 244 249 244 244 246 223 207 205 216 278 299 301 285 290 264 260 247 246 240 240 238 235 230 226 227 230 231 228 229 231 233 232
262 262 259 257 262 259 240 226 247 267 265 255 253 251 250 252 240 228 215 197 201 254 278 279 284 281 272 259 264 246 241 241 237 232 230 229 231 233 232 229 228 229 229
272 270 275 277 272 277 276 244 269 267 266 266 258 258 260 258 255 240 225 219 205 206 243 258 260 273 283 286 274 259 250 255 243 234 230 229 233 235 233 231 229 228 227
288 274 263 259 257 269 274 253 257 265 263 274 277 263 266 254 251 253 227 219 223 199 240 275 268 278 284 283 291 272 258 248 248 238 233 229 232 234 231 231 231 229 228
303 291 285 280 276 307 288 252 274 284 262 268 279 310 307 321 295 259 236 233 239 224 215 264 288 289 278 278 278 281 275 260 253 249 235 231 234 239 236 232 231 229 230
335 333 355 17 15 360 7 341 317 309 304 259 238 205 260 345 312 283 256 251 252 264 222 233 275 276 277 289 301 299 300 296 276 261 235 232 237 242 241 234 234 233 231
345 350 15 39 48 38 26 2 5 4 8 346 341 180 227 219 253 267 264 259 253 267 265 260 278 285 284 294 310 296 308 309 301 294 280 249 237 239 249 245 240 239 237
352 339 17 37 33 46 9 2 12 26 23 8 0 342 277 290 290 283 277 262 256 250 261 262 275 291 292 304 287 269 285 298 304 285 298 282 256 251 255 257 248 246 244
353 15 38 50 42 26 8 18 27 38 31 21 352 337 327 350 342 337 324 307 278 238 236 244 259 262 266 260 263 264 266 313 304 289 260 277 251 261 267 255 256 252 251
20 25 15 37 41 4 10 16 22 51 42 16 354 345 352 1 355 353 339 339 327 304 265 230 239 252 253 246 241 259 251 246 253 261 236 271 260 259 263 265 264 262 263
8 359 2 7 17 353 3 14 22 42 37 14 348 326 332 325 328 330 340 341 328 317 300 276 235 251 254 245 223 223 231 260 279 276 207 245 260 257 269 266 265 266 265
334 327 306 347 6 327 335 349 22 37 26 347 328 311 293 292 309 332 353 334 326 319 320 323 301 292 292 278 234 123 2 309 295 289 246 211 253 266 272 267 265 265 265
274 321 354 325 312 303 329 353 39 73 32 338 328 322 314 310 310 322 311 289 300 295 317 333 335 329 317 305 284 207 201 221 250 272 253 199 232 243 300 285 273 275 273